Time,TemperatureF,DewpointF,PressureIn,WindDirection,WindDirectionDegrees,WindSpeedMPH,WindSpeedGustMPH,Humidity,HourlyPrecipIn,Conditions,Clouds,dailyrainin,SoftwareType,DateUTC
2013-10-24 00:03:00,37.9,29.0,30.10,South,180,1.7,-999.0,70,-99.99,,,0.00,Acu-Link.com,2013-10-24 06:03:00,
2013-10-24 00:18:00,36.9,28.7,30.10,South,180,0.0,-999.0,72,-99.99,,,0.00,Acu-Link.com,2013-10-24 06:18:00,
2013-10-24 00:33:00,37.6,29.1,30.10,South,180,1.7,-999.0,71,-99.99,,,0.00,Acu-Link.com,2013-10-24 06:33:00,
2013-10-24 00:49:00,36.7,28.2,30.09,SSW,202,1.7,-999.0,71,-99.99,,,0.00,Acu-Link.com,2013-10-24 06:49:00,
2013-10-24 01:05:00,36.5,28.7,30.09,South,180,2.7,-999.0,73,-99.99,,,0.00,Acu-Link.com,2013-10-24 07:05:00,
2013-10-24 01:20:00,35.8,28.3,30.10,SSE,157,1.1,-999.0,74,-99.99,,,0.00,Acu-Link.com,2013-10-24 07:20:00,
2013-10-24 01:36:00,35.2,29.0,30.10,South,180,0.0,-999.0,78,-99.99,,,0.00,Acu-Link.com,2013-10-24 07:36:00,
2013-10-24 01:51:00,34.3,28.8,30.10,SSE,157,0.0,-999.0,80,-99.99,,,0.00,Acu-Link.com,2013-10-24 07:51:00,
2013-10-24 02:06:00,34.0,28.8,30.10,South,180,0.0,-999.0,81,-99.99,,,0.00,Acu-Link.com,2013-10-24 08:06:00,
2013-10-24 02:21:00,33.6,28.4,30.09,SSW,202,1.7,-999.0,81,-99.99,,,0.00,Acu-Link.com,2013-10-24 08:21:00,
2013-10-24 02:36:00,33.8,28.6,30.09,South,180,1.7,-999.0,81,-99.99,,,0.00,Acu-Link.com,2013-10-24 08:36:00,
2013-10-24 02:52:00,33.3,28.1,30.09,South,180,2.2,-999.0,81,-99.99,,,0.00,Acu-Link.com,2013-10-24 08:52:00,
2013-10-24 03:07:00,33.3,28.1,30.08,West,270,5.3,-999.0,81,-99.99,,,0.00,Acu-Link.com,2013-10-24 09:07:00,
2013-10-24 03:22:00,34.9,28.4,30.07,SSW,202,1.7,-999.0,77,-99.99,,,0.00,Acu-Link.com,2013-10-24 09:22:00,
2013-10-24 03:37:00,33.6,27.8,30.07,SSW,202,0.0,-999.0,79,-99.99,,,0.00,Acu-Link.com,2013-10-24 09:37:00,
2013-10-24 03:52:00,32.9,27.7,30.07,SW,225,2.7,-999.0,81,-99.99,,,0.00,Acu-Link.com,2013-10-24 09:52:00,
2013-10-24 04:07:00,32.4,27.5,30.06,SSW,202,2.7,-999.0,82,-99.99,,,0.00,Acu-Link.com,2013-10-24 10:07:00,
2013-10-24 04:22:00,32.5,27.6,30.06,South,180,3.2,-999.0,82,-99.99,,,0.00,Acu-Link.com,2013-10-24 10:22:00,
2013-10-24 04:37:00,33.1,27.9,30.06,SSW,202,2.2,-999.0,81,-99.99,,,0.00,Acu-Link.com,2013-10-24 10:37:00,
2013-10-24 04:52:00,33.3,27.8,30.06,South,180,5.3,-999.0,80,-99.99,,,0.00,Acu-Link.com,2013-10-24 10:52:00,
2013-10-24 05:07:00,33.3,27.5,30.06,SW,225,2.7,-999.0,79,-99.99,,,0.00,Acu-Link.com,2013-10-24 11:07:00,
2013-10-24 05:23:00,33.4,27.3,30.06,West,270,2.2,-999.0,78,-99.99,,,0.00,Acu-Link.com,2013-10-24 11:23:00,
2013-10-24 05:38:00,33.3,27.2,30.06,SW,225,2.2,-999.0,78,-99.99,,,0.00,Acu-Link.com,2013-10-24 11:38:00,
2013-10-24 05:53:00,32.7,26.9,30.06,South,180,3.2,-999.0,79,-99.99,,,0.00,Acu-Link.com,2013-10-24 11:53:00,
2013-10-24 06:08:00,32.0,26.5,30.06,SSW,202,2.7,-999.0,80,-99.99,,,0.00,Acu-Link.com,2013-10-24 12:08:00,
2013-10-24 06:23:00,32.0,26.5,30.06,SSW,202,2.7,-999.0,80,-99.99,,,0.00,Acu-Link.com,2013-10-24 12:23:00,
2013-10-24 06:38:00,33.4,27.0,30.06,WSW,247,7.8,-999.0,77,-99.99,,,0.00,Acu-Link.com,2013-10-24 12:38:00,
2013-10-24 06:54:00,34.2,26.5,30.06,WSW,247,4.7,-999.0,73,-99.99,,,0.00,Acu-Link.com,2013-10-24 12:54:00,
2013-10-24 07:09:00,32.9,25.9,30.06,South,180,4.7,-999.0,75,-99.99,,,0.00,Acu-Link.com,2013-10-24 13:09:00,
2013-10-24 07:24:00,34.0,25.9,30.06,ENE,67,4.2,-999.0,72,-99.99,,,0.00,Acu-Link.com,2013-10-24 13:24:00,
2013-10-24 07:39:00,34.5,24.7,30.06,SSW,202,5.8,-999.0,67,-99.99,,,0.00,Acu-Link.com,2013-10-24 13:39:00,
2013-10-24 07:54:00,34.3,25.2,30.06,WSW,247,2.7,-999.0,69,-99.99,,,0.00,Acu-Link.com,2013-10-24 13:54:00,
2013-10-24 08:09:00,33.3,24.9,30.07,West,270,1.7,-999.0,71,-99.99,,,0.00,Acu-Link.com,2013-10-24 14:09:00,
2013-10-24 08:24:00,33.4,24.3,30.07,SW,225,2.2,-999.0,69,-99.99,,,0.00,Acu-Link.com,2013-10-24 14:24:00,
2013-10-24 08:39:00,33.6,24.9,30.07,SSW,202,2.2,-999.0,70,-99.99,,,0.00,Acu-Link.com,2013-10-24 14:39:00,
2013-10-24 08:54:00,34.3,23.8,30.07,West,270,1.1,-999.0,65,-99.99,,,0.00,Acu-Link.com,2013-10-24 14:54:00,
2013-10-24 09:10:00,34.5,25.4,30.08,SSW,202,1.7,-999.0,69,-99.99,,,0.00,Acu-Link.com,2013-10-24 15:10:00,
2013-10-24 09:25:00,35.2,25.7,30.08,SSW,202,0.0,-999.0,68,-99.99,,,0.00,Acu-Link.com,2013-10-24 15:25:00,
2013-10-24 09:40:00,37.0,25.6,30.09,South,180,0.0,-999.0,63,-99.99,,,0.00,Acu-Link.com,2013-10-24 15:40:00,
2013-10-24 09:55:00,39.2,30.3,30.09,WNW,292,2.7,-999.0,70,-99.99,,,0.00,Acu-Link.com,2013-10-24 15:55:00,
2013-10-24 10:10:00,40.6,31.9,30.08,NE,45,3.2,-999.0,71,-99.99,,,0.00,Acu-Link.com,2013-10-24 16:10:00,
2013-10-24 10:25:00,43.3,32.7,30.09,ENE,67,4.7,-999.0,66,-99.99,,,0.00,Acu-Link.com,2013-10-24 16:25:00,
2013-10-24 10:41:00,44.4,33.4,30.08,NE,45,3.2,-999.0,65,-99.99,,,0.00,Acu-Link.com,2013-10-24 16:41:00,
2013-10-24 10:56:00,45.7,33.8,30.08,NNW,337,2.2,-999.0,63,-99.99,,,0.00,Acu-Link.com,2013-10-24 16:56:00,
2013-10-24 11:11:00,45.3,33.9,30.08,ESE,112,3.7,-999.0,64,-99.99,,,0.00,Acu-Link.com,2013-10-24 17:11:00,
2013-10-24 11:26:00,45.3,33.9,30.08,ENE,67,5.8,-999.0,64,-99.99,,,0.00,Acu-Link.com,2013-10-24 17:26:00,
2013-10-24 11:41:00,46.8,35.3,30.09,NE,45,5.3,-999.0,64,-99.99,,,0.00,Acu-Link.com,2013-10-24 17:41:00,
2013-10-24 11:56:00,46.9,35.0,30.08,WNW,292,3.7,-999.0,63,-99.99,,,0.00,Acu-Link.com,2013-10-24 17:56:00,
2013-10-24 12:11:00,48.6,35.4,30.08,SSW,202,1.7,-999.0,60,-99.99,,,0.00,Acu-Link.com,2013-10-24 18:11:00,
2013-10-24 12:27:00,49.5,35.3,30.08,ESE,112,5.3,-999.0,58,-99.99,,,0.00,Acu-Link.com,2013-10-24 18:27:00,
2013-10-24 12:42:00,49.8,35.6,30.07,West,270,4.7,-999.0,58,-99.99,,,0.00,Acu-Link.com,2013-10-24 18:42:00,
2013-10-24 12:57:00,50.2,36.4,30.07,NE,45,3.2,-999.0,59,-99.99,,,0.00,Acu-Link.com,2013-10-24 18:57:00,
2013-10-24 13:12:00,51.6,36.4,30.06,NE,45,6.3,-999.0,56,-99.99,,,0.00,Acu-Link.com,2013-10-24 19:12:00,
2013-10-24 13:27:00,52.7,37.0,30.06,NNE,22,2.7,-999.0,55,-99.99,,,0.00,Acu-Link.com,2013-10-24 19:27:00,
2013-10-24 13:42:00,53.8,36.1,30.05,NNE,22,2.7,-999.0,51,-99.99,,,0.00,Acu-Link.com,2013-10-24 19:42:00,
2013-10-24 13:57:00,53.2,37.0,30.04,NE,45,4.7,-999.0,54,-99.99,,,0.00,Acu-Link.com,2013-10-24 19:57:00,
2013-10-24 14:12:00,53.4,35.2,30.03,East,90,4.7,-999.0,50,-99.99,,,0.00,Acu-Link.com,2013-10-24 20:12:00,
2013-10-24 14:27:00,54.3,37.5,30.03,NW,315,2.2,-999.0,53,-99.99,,,0.00,Acu-Link.com,2013-10-24 20:27:00,
2013-10-24 14:43:00,53.6,36.9,30.03,SE,135,5.3,-999.0,53,-99.99,,,0.00,Acu-Link.com,2013-10-24 20:43:00,
2013-10-24 14:58:00,53.6,36.4,30.03,East,90,2.7,-999.0,52,-99.99,,,0.00,Acu-Link.com,2013-10-24 20:58:00,
2013-10-24 15:13:00,53.2,37.0,30.03,SE,135,2.7,-999.0,54,-99.99,,,0.00,Acu-Link.com,2013-10-24 21:13:00,
2013-10-24 15:28:00,53.1,38.3,30.03,North,0,2.7,-999.0,57,-99.99,,,0.00,Acu-Link.com,2013-10-24 21:28:00,
2013-10-24 15:43:00,53.1,38.7,30.03,NW,315,0.0,-999.0,58,-99.99,,,0.00,Acu-Link.com,2013-10-24 21:43:00,
2013-10-24 15:58:00,51.6,38.6,30.03,NE,45,4.7,-999.0,61,-99.99,,,0.00,Acu-Link.com,2013-10-24 21:58:00,
2013-10-24 16:14:00,51.6,38.6,30.03,SE,135,1.7,-999.0,61,-99.99,,,0.00,Acu-Link.com,2013-10-24 22:14:00,
2013-10-24 16:29:00,49.1,38.2,30.03,ESE,112,3.7,-999.0,66,-99.99,,,0.00,Acu-Link.com,2013-10-24 22:29:00,
2013-10-24 16:44:00,47.3,37.3,30.03,NE,45,2.7,-999.0,68,-99.99,,,0.00,Acu-Link.com,2013-10-24 22:44:00,
2013-10-24 16:59:00,45.9,37.4,30.03,South,180,1.1,-999.0,72,-99.99,,,0.00,Acu-Link.com,2013-10-24 22:59:00,
2013-10-24 17:14:00,47.3,37.3,30.04,East,90,1.1,-999.0,68,-99.99,,,0.00,Acu-Link.com,2013-10-24 23:14:00,
2013-10-24 17:30:00,45.0,36.5,30.04,ESE,112,2.7,-999.0,72,-99.99,,,0.00,Acu-Link.com,2013-10-24 23:30:00,
2013-10-24 17:45:00,45.0,36.9,30.04,East,90,2.7,-999.0,73,-99.99,,,0.00,Acu-Link.com,2013-10-24 23:45:00,
2013-10-24 18:00:00,42.8,35.8,30.04,SSE,157,0.0,-999.0,76,-99.99,,,0.00,Acu-Link.com,2013-10-25 00:00:00,
2013-10-24 18:15:00,41.0,35.0,30.05,NE,45,0.0,-999.0,79,-99.99,,,0.00,Acu-Link.com,2013-10-25 00:15:00,
2013-10-24 18:30:00,39.6,34.6,30.05,South,180,0.0,-999.0,82,-99.99,,,0.00,Acu-Link.com,2013-10-25 00:30:00,
2013-10-24 18:46:00,38.3,33.9,30.06,East,90,0.0,-999.0,84,-99.99,,,0.00,Acu-Link.com,2013-10-25 00:46:00,
2013-10-24 19:01:00,37.0,33.2,30.06,South,180,0.0,-999.0,86,-99.99,,,0.00,Acu-Link.com,2013-10-25 01:01:00,
2013-10-24 19:16:00,36.1,32.3,30.06,SE,135,0.0,-999.0,86,-99.99,,,0.00,Acu-Link.com,2013-10-25 01:16:00,
2013-10-24 19:31:00,35.8,32.9,30.07,SSE,157,0.0,-999.0,89,-99.99,,,0.00,Acu-Link.com,2013-10-25 01:31:00,
2013-10-24 19:46:00,35.6,32.7,30.06,South,180,0.0,-999.0,89,-99.99,,,0.00,Acu-Link.com,2013-10-25 01:46:00,
2013-10-24 20:01:00,35.2,32.8,30.07,South,180,0.0,-999.0,91,-99.99,,,0.00,Acu-Link.com,2013-10-25 02:01:00,
2013-10-24 20:16:00,35.2,32.8,30.07,SE,135,0.0,-999.0,91,-99.99,,,0.00,Acu-Link.com,2013-10-25 02:16:00,
2013-10-24 20:31:00,35.8,33.7,30.07,South,180,1.1,-999.0,92,-99.99,,,0.00,Acu-Link.com,2013-10-25 02:31:00,
2013-10-24 20:46:00,35.8,33.7,30.07,SW,225,1.1,-999.0,92,-99.99,,,0.00,Acu-Link.com,2013-10-25 02:46:00,
2013-10-24 21:02:00,35.6,33.5,30.06,South,180,2.2,-999.0,92,-99.99,,,0.00,Acu-Link.com,2013-10-25 03:02:00,
2013-10-24 21:17:00,36.7,32.9,30.07,SSW,202,2.7,-999.0,86,-99.99,,,0.00,Acu-Link.com,2013-10-25 03:17:00,
2013-10-24 21:32:00,36.3,31.9,30.07,SSW,202,3.2,-999.0,84,-99.99,,,0.00,Acu-Link.com,2013-10-25 03:32:00,
2013-10-24 21:47:00,37.8,30.3,30.06,South,180,1.7,-999.0,74,-99.99,,,0.00,Acu-Link.com,2013-10-25 03:47:00,
2013-10-24 22:02:00,37.4,29.2,30.07,South,180,1.7,-999.0,72,-99.99,,,0.00,Acu-Link.com,2013-10-25 04:02:00,
2013-10-24 22:17:00,37.0,29.2,30.07,West,270,3.7,-999.0,73,-99.99,,,0.00,Acu-Link.com,2013-10-25 04:17:00,
2013-10-24 22:33:00,37.6,28.7,30.06,SSW,202,3.7,-999.0,70,-99.99,,,0.00,Acu-Link.com,2013-10-25 04:33:00,
2013-10-24 22:48:00,37.6,28.4,30.07,West,270,1.7,-999.0,69,-99.99,,,0.00,Acu-Link.com,2013-10-25 04:48:00,
2013-10-24 23:03:00,37.8,28.2,30.06,SSW,202,2.7,-999.0,68,-99.99,,,0.00,Acu-Link.com,2013-10-25 05:03:00,
2013-10-24 23:18:00,37.6,28.0,30.07,South,180,2.7,-999.0,68,-99.99,,,0.00,Acu-Link.com,2013-10-25 05:18:00,
2013-10-24 23:33:00,38.5,27.4,30.06,WSW,247,3.7,-999.0,64,-99.99,,,0.00,Acu-Link.com,2013-10-25 05:33:00,
2013-10-24 23:49:00,39.0,27.1,30.06,SW,225,5.8,-999.0,62,-99.99,,,0.00,Acu-Link.com,2013-10-25 05:49:00,